Hourly Data Report for October 24, 2015

All times are specified in Local Standard Time (LST). Add 1 hour to adjust for Daylight Saving Time where and when it is observed.

FREDERICTON
NEW BRUNSWICK

45°52'08.000" N
66°32'14.000" W
20.70 m
8101505
71700
YFC

Download Data

Hourly Data (October 2015)
Hourly Data Report for October 24, 2015
Temp Definition
°C
Dew Point Temp Definition
°C
Rel Hum Definition
%
Wind Dir Definition
10's deg

Wind Spd Definition
km/h
Visibility Definition
km
Stn Press Definition
kPa
Hmdx Definition


Wind Chill Definition


Weather Definition


TIME
00:00 Legend Double Dagger 1.0 -1.7 82 33 15 16.1 102.45     LegendNANA
01:00 Legend Double Dagger 0.3 -1.9 85 33 9 16.1 102.52     LegendNANA
02:00 Legend Double Dagger 0.0 -2.1 86 33 8 16.1 102.61   -3 LegendNANA
03:00 Legend Double Dagger -0.5 -2.3 88 31 4 16.1 102.63   -2 LegendNANA
04:00 Legend Double Dagger -2.0 -3.0 93 32 4 16.1 102.66   -3 LegendNANA
05:00 Legend Double Dagger -3.2 -3.8 96 LegendMM 4 16.1 102.73   -5 LegendNANA
06:00 Legend Double Dagger -3.4 -4.0 96 24 4 16.1 102.74   -5 LegendNANA
07:00 Legend Double Dagger -3.9 -4.5 96 19 8 16.1 102.76   -7 LegendNANA
08:00 Legend Double Dagger -2.6 -3.3 95 LegendMM 4 16.1 102.81   -4 LegendNANA
09:00 Legend Double Dagger 0.4 -1.5 87   0 16.1 102.86     LegendNANA
10:00 Legend Double Dagger 2.8 -1.4 74 LegendMM 4 16.1 102.86     LegendNANA
11:00 Legend Double Dagger 4.8 -0.4 69 6 9 16.1 102.83     LegendNANA
12:00 Legend Double Dagger 6.5 -0.1 63 LegendMM 8 16.1 102.77     LegendNANA
13:00 Legend Double Dagger 7.5 -0.1 58 14 11 16.1 102.68     LegendNANA
14:00 Legend Double Dagger 8.5 -0.3 54 16 8 16.1 102.60     LegendNANA
15:00 Legend Double Dagger 9.2 -0.1 52 LegendMM 4 16.1 102.55     LegendNANA
16:00 Legend Double Dagger 9.7 0.2 52 19 11 16.1 102.51     LegendNANA
17:00 Legend Double Dagger 8.5 1.5 61 19 11 16.1 102.49     LegendNANA
18:00 Legend Double Dagger 5.7 1.3 73 20 13 16.1 102.49     LegendNANA
19:00 Legend Double Dagger 4.2 0.9 79 18 11 16.1 102.52     LegendNANA
20:00 Legend Double Dagger 3.5 1.1 84 15 9 16.1 102.43     LegendNANA
21:00 Legend Double Dagger 2.9 1.3 89 18 9 16.1 102.47     LegendNANA
22:00 Legend Double Dagger 4.4 1.8 83 17 9 16.1 102.34     LegendNANA
23:00 Legend Double Dagger 5.4 2.2 80 17 11 16.1 102.27     LegendNANA

Notes on Data Quality.

Legend

  • E = Estimated
  • M = Missing
  • NA = Not Available
  • ‡ = Partner data that is not subject to review by the National Climate Archives
Date modified: